Location: Gipe Farm
(40.9466°N, 95.5370°W)
Time: 15:49:22
(UTC-06:00)

Cosmos 1842 - Visible Passes

Search period start: 27 November 2014 00:00
Search period end: 07 December 2014 00:00
Orbit: 535 x 552 km, 82.5° (Epoch: 26 November)

Date Brightness Start Highest point End Pass type
(mag) Time Alt. Az. Time Alt. Az. Time Alt. Az.
04 Dec 6.2 06:58:05 10° NE 06:59:44 12° ENE 07:01:23 10° E visible
05 Dec 6.2 06:51:37 10° NE 06:53:25 13° ENE 06:55:13 10° E visible
06 Dec 6.2 06:45:09 10° NE 06:47:06 13° ENE 06:49:01 10° E visible
